Location: Wavehorne
(51.0500°N, 0.8333°E)
Time: 17:06:55
(UTC+00:00)

CENTAUR R/B - Pass Details

Date: 20 June 2021
Orbit: 740 x 1447 km, 63.4° (Epoch: 17 July)

Event Time Altitude Azimuth Distance (km) Brightness Sun altitude
Rises 01:06:55 0° 306° (NW) 3,923 5.9 -14.0°
Reaches altitude 10° 01:09:39 10° 314° (NW) 3,067 5.5 -13.9°
Maximum altitude 01:16:42 41° 23° (NNE) 1,784 4.5 -13.5°
Drops below altitude 10° 01:24:43 10° 92° (E) 3,484 5.6 -13.1°
Sets 01:28:01 0° 99° (E) 4,506 6.1 -12.9°
